Location: Chanteloup
(48.8560°N, 2.7390°E)
Time: 21:48:36
(UTC+00:00)

Cosmos 2322 Rocket - Pass Details

Date: 06 June 2022
Orbit: 833 x 851 km, 71.0° (Epoch: 06 July)

Event Time Altitude Azimuth Distance (km) Brightness Sun altitude
Rises 02:48:38 0° 335° (NNW) 3,396 5.7 -7.9°
Reaches altitude 10° 02:52:27 10° 1° (N) 2,462 5.4 -7.5°
Maximum altitude 02:55:16 14° 31° (NNE) 2,200 5.8 -7.2°
Drops below altitude 10° 02:58:06 10° 62° (ENE) 2,463 6.1 -6.9°
Sets 03:01:55 0° 87° (E) 3,399 6.1 -6.4°
